• In Hungary
  • List of Countries
  • For 7 days
  • Water Temperature
  • Satellite Maps
  • Weather Map
  • News
  • Weather Widgets
  • user-avatar
    Login

    Hourly Weather Emekovo

    Today, 23 October, Tuesday

    Time Temperature Precipitation Wind Pressure Humidity
    00:00 +3°C° 0 mm 4 mps 753 mmHg 85%
    01:00 +3°C° 0 mm 4 mps 752 mmHg 88%
    02:00 +4°C° 0 mm 4 mps 752 mmHg 89%
    03:00 +4°C° 0 mm 4 mps 751 mmHg 94%
    04:00 +5°C° 0 mm 4 mps 751 mmHg 93%
    05:00 +5°C° 0 mm 5 mps 750 mmHg 92%
    06:00 +6°C° 0 mm 5 mps 750 mmHg 91%
    07:00 +6°C° 0.2 mm 5 mps 749 mmHg 90%
    08:00 +7°C° 0.2 mm 5 mps 749 mmHg 88%
    09:00 +7°C° 0.2 mm 6 mps 748 mmHg 86%
    10:00 +7°C° 0.8 mm 6 mps 748 mmHg 85%
    11:00 +7°C° 0.8 mm 6 mps 747 mmHg 85%
    12:00 +7°C° 0.8 mm 6 mps 746 mmHg 84%
    13:00 +6°C° 0.7 mm 7 mps 746 mmHg 84%
    14:00 +6°C° 0.7 mm 7 mps 745 mmHg 84%
    15:00 +6°C° 0.7 mm 7 mps 745 mmHg 84%
    16:00 +6°C° 0.6 mm 7 mps 744 mmHg 84%
    17:00 +6°C° 0.6 mm 7 mps 743 mmHg 85%
    18:00 +6°C° 0.6 mm 7 mps 743 mmHg 85%
    19:00 +7°C° 0.5 mm 6 mps 743 mmHg 86%
    20:00 +7°C° 0.5 mm 6 mps 742 mmHg 87%
    21:00 +7°C° 0.5 mm 6 mps 742 mmHg 89%
    22:00 +6°C° 0.1 mm 5 mps 742 mmHg 89%
    23:00 +6°C° 0.1 mm 4 mps 742 mmHg 89%

    Tomorrow, 24 October, Wednesday

    Time Temperature Precipitation Wind Pressure Humidity
    00:00 +5°C° 0.1 mm 3 mps 741 mmHg 90%
    01:00 +5°C° 0 mm 3 mps 741 mmHg 91%
    02:00 +4°C° 0 mm 3 mps 741 mmHg 91%
    03:00 +3°C° 0 mm 3 mps 741 mmHg 92%
    04:00 +3°C° 0 mm 3 mps 741 mmHg 92%
    05:00 +3°C° 0 mm 3 mps 741 mmHg 92%
    06:00 +3°C° 0 mm 3 mps 741 mmHg 92%
    07:00 +3°C° 0 mm 4 mps 741 mmHg 87%
    08:00 +4°C° 0 mm 4 mps 740 mmHg 83%
    09:00 +5°C° 0 mm 5 mps 740 mmHg 79%
    10:00 +6°C° 0 mm 5 mps 740 mmHg 74%
    11:00 +7°C° 0 mm 6 mps 740 mmHg 69%
    12:00 +8°C° 0 mm 6 mps 740 mmHg 64%
    13:00 +8°C° 0 mm 5 mps 740 mmHg 65%
    14:00 +8°C° 0 mm 5 mps 740 mmHg 66%
    15:00 +8°C° 0 mm 4 mps 739 mmHg 67%
    16:00 +7°C° 0 mm 4 mps 739 mmHg 69%
    17:00 +7°C° 0 mm 4 mps 739 mmHg 72%
    18:00 +6°C° 0 mm 4 mps 739 mmHg 75%
    19:00 +6°C° 0 mm 4 mps 739 mmHg 75%
    20:00 +6°C° 0 mm 5 mps 739 mmHg 75%
    21:00 +6°C° 0 mm 5 mps 738 mmHg 74%
    22:00 +7°C° 0.1 mm 5 mps 738 mmHg 76%
    23:00 +7°C° 0.1 mm 6 mps 738 mmHg 78%

    Day after tomorrow, 25 October, Thursday

    Time Temperature Precipitation Wind Pressure Humidity
    00:00 +7°C° 0.1 mm 6 mps 737 mmHg 79%
    01:00 +7°C° 0.7 mm 6 mps 737 mmHg 81%
    02:00 +7°C° 0.7 mm 6 mps 737 mmHg 83%
    03:00 +7°C° 0.7 mm 6 mps 737 mmHg 84%
    04:00 +7°C° 0.4 mm 6 mps 737 mmHg 86%
    05:00 +7°C° 0.4 mm 6 mps 737 mmHg 89%
    06:00 +8°C° 0.4 mm 6 mps 736 mmHg 91%
    07:00 +8°C° 0.5 mm 6 mps 736 mmHg 91%
    08:00 +8°C° 0.5 mm 6 mps 735 mmHg 91%
    09:00 +9°C° 0.5 mm 7 mps 735 mmHg 91%
    10:00 +9°C° 1.4 mm 7 mps 734 mmHg 89%
    11:00 +9°C° 1.4 mm 7 mps 734 mmHg 88%
    12:00 +10°C° 1.4 mm 8 mps 733 mmHg 87%
    13:00 +10°C° 0.2 mm 8 mps 733 mmHg 86%
    14:00 +10°C° 0.2 mm 8 mps 733 mmHg 86%
    15:00 +10°C° 0.2 mm 8 mps 732 mmHg 85%
    16:00 +10°C° 0.2 mm 8 mps 732 mmHg 85%
    17:00 +10°C° 0.2 mm 8 mps 732 mmHg 86%
    18:00 +10°C° 0.2 mm 8 mps 732 mmHg 86%
    19:00 +9°C° 0.5 mm 7 mps 733 mmHg 84%
    20:00 +8°C° 0.5 mm 6 mps 733 mmHg 83%
    21:00 +7°C° 0.5 mm 5 mps 733 mmHg 81%
    22:00 +7°C° 0.1 mm 4 mps 733 mmHg 81%
    23:00 +6°C° 0.1 mm 4 mps 733 mmHg 82%

    26 October, Friday

    Time Temperature Precipitation Wind Pressure Humidity
    00:00 +7°C° 0.1 mm 3 mps 734 mmHg 83%
    01:00 +7°C° 0 mm 3 mps 734 mmHg 83%
    02:00 +5°C° 0 mm 4 mps 734 mmHg 83%
    03:00 +5°C° 0 mm 4 mps 734 mmHg 83%
    04:00 +4°C° 0 mm 4 mps 734 mmHg 83%
    05:00 +4°C° 0 mm 4 mps 734 mmHg 83%
    06:00 +3°C° 0 mm 4 mps 735 mmHg 84%
    07:00 +3°C° 0 mm 4 mps 735 mmHg 82%
    08:00 +3°C° 0 mm 5 mps 735 mmHg 81%
    09:00 +3°C° 0 mm 5 mps 736 mmHg 80%
    10:00 +3°C° 0 mm 5 mps 736 mmHg 78%
    11:00 +3°C° 0 mm 5 mps 737 mmHg 76%
    12:00 +5°C° 0 mm 5 mps 737 mmHg 74%
    13:00 +5°C° 0.1 mm 5 mps 737 mmHg 73%
    14:00 +5°C° 0.1 mm 5 mps 738 mmHg 71%
    15:00 +5°C° 0.1 mm 5 mps 738 mmHg 70%
    16:00 +3°C° 0 mm 5 mps 739 mmHg 70%
    17:00 +3°C° 0 mm 5 mps 739 mmHg 70%
    18:00 +3°C° 0 mm 4 mps 739 mmHg 70%
    19:00 +1°C° 0 mm 4 mps 740 mmHg 73%
    20:00 +1°C° 0 mm 4 mps 740 mmHg 75%
    21:00 0°C° 0 mm 4 mps 740 mmHg 78%
    22:00 0°C° 0 mm 4 mps 741 mmHg 79%
    23:00 0°C° 0 mm 4 mps 741 mmHg 80%

    27 October, Saturday

    Time Temperature Precipitation Wind Pressure Humidity
    00:00 0°C° 0 mm 4 mps 741 mmHg 81%
    01:00 -1°C° 0 mm 4 mps 741 mmHg 82%
    02:00 -1°C° 0 mm 4 mps 742 mmHg 83%
    03:00 -1°C° 0 mm 4 mps 742 mmHg 84%
    04:00 -1°C° 0 mm 4 mps 742 mmHg 86%
    05:00 -1°C° 0 mm 4 mps 742 mmHg 87%
    06:00 -1°C° 0 mm 4 mps 743 mmHg 89%
    07:00 -1°C° 0 mm 4 mps 743 mmHg 86%
    08:00 0°C° 0 mm 5 mps 743 mmHg 83%
    09:00 0°C° 0 mm 5 mps 744 mmHg 81%
    10:00 +1°C° 0 mm 5 mps 744 mmHg 78%
    11:00 +2°C° 0 mm 5 mps 744 mmHg 75%
    12:00 +3°C° 0 mm 6 mps 745 mmHg 73%
    13:00 +2°C° 0 mm 6 mps 745 mmHg 72%
    14:00 +2°C° 0 mm 6 mps 746 mmHg 72%
    15:00 +2°C° 0 mm 6 mps 746 mmHg 72%
    16:00 +1°C° 0 mm 5 mps 747 mmHg 72%
    17:00 +1°C° 0 mm 5 mps 747 mmHg 73%
    18:00 +1°C° 0 mm 5 mps 748 mmHg 73%
    19:00 0°C° 0 mm 4 mps 747 mmHg 75%
    20:00 0°C° 0 mm 4 mps 747 mmHg 77%
    21:00 +1°C° 0 mm 3 mps 747 mmHg 79%
    22:00 0°C° 0 mm 4 mps 747 mmHg 80%
    23:00 0°C° 0 mm 5 mps 747 mmHg 81%

    28 October, Sunday

    Time Temperature Precipitation Wind Pressure Humidity
    00:00 0°C° 0 mm 5 mps 746 mmHg 82%
    01:00 +1°C° 0.3 mm 6 mps 745 mmHg 81%
    02:00 0°C° 0.3 mm 7 mps 744 mmHg 79%
    03:00 0°C° 0.3 mm 7 mps 744 mmHg 77%
    04:00 +2°C° 1.4 mm 7 mps 743 mmHg 80%
    05:00 +2°C° 1.4 mm 7 mps 742 mmHg 83%
    06:00 +3°C° 1.4 mm 7 mps 741 mmHg 86%
    07:00 +4°C° 0.3 mm 7 mps 742 mmHg 85%
    08:00 +4°C° 0.3 mm 7 mps 742 mmHg 85%
    09:00 +5°C° 0.3 mm 7 mps 742 mmHg 84%
    10:00 +6°C° 0.1 mm 7 mps 742 mmHg 79%
    11:00 +6°C° 0.1 mm 7 mps 742 mmHg 74%
    12:00 +7°C° 0.1 mm 8 mps 742 mmHg 69%
    13:00 +6°C° 0.1 mm 8 mps 743 mmHg 69%
    14:00 +5°C° 0.1 mm 8 mps 743 mmHg 70%
    15:00 +4°C° 0.1 mm 8 mps 743 mmHg 71%
    16:00 +4°C° 0 mm 8 mps 744 mmHg 71%
    17:00 +3°C° 0 mm 7 mps 745 mmHg 72%
    18:00 +2°C° 0 mm 7 mps 746 mmHg 72%
    19:00 +2°C° 0 mm 7 mps 747 mmHg 73%
    20:00 +2°C° 0 mm 7 mps 748 mmHg 74%
    21:00 +2°C° 0 mm 7 mps 749 mmHg 75%
    22:00 0°C° 0 mm 7 mps 750 mmHg 76%
    23:00 +1°C° 0 mm 6 mps 750 mmHg 77%

    29 October, Monday

    Time Temperature Precipitation Wind Pressure Humidity
    00:00 0°C° 0 mm 5 mps 751 mmHg 78%
    01:00 0°C° 0 mm 5 mps 752 mmHg 80%
    02:00 -1°C° 0 mm 5 mps 753 mmHg 81%
    03:00 -1°C° 0 mm 4 mps 754 mmHg 83%
    04:00 -1°C° 0 mm 4 mps 755 mmHg 84%
    05:00 -2°C° 0 mm 4 mps 755 mmHg 85%
    06:00 -1°C° 0 mm 3 mps 756 mmHg 86%
    07:00 -1°C° 0 mm 3 mps 757 mmHg 84%
    08:00 0°C° 0 mm 3 mps 757 mmHg 82%
    09:00 0°C° 0 mm 3 mps 758 mmHg 80%
    10:00 +1°C° 0 mm 3 mps 758 mmHg 76%
    11:00 +2°C° 0 mm 3 mps 759 mmHg 72%
    12:00 +3°C° 0 mm 2 mps 760 mmHg 68%
    13:00 +3°C° 0 mm 2 mps 760 mmHg 68%
    14:00 +4°C° 0 mm 1 mps 760 mmHg 68%
    15:00 +4°C° 0 mm 1 mps 760 mmHg 69%
    16:00 +4°C° 0 mm 1 mps 761 mmHg 71%
    17:00 +4°C° 0 mm 1 mps 761 mmHg 73%
    18:00 +3°C° 0 mm 1 mps 761 mmHg 75%
    19:00 +3°C° 0 mm 1 mps 761 mmHg 77%
    20:00 +3°C° 0 mm 1 mps 761 mmHg 79%
    21:00 +3°C° 0 mm 1 mps 761 mmHg 80%
    22:00 +3°C° 0.1 mm 1 mps 762 mmHg 82%
    23:00 +3°C° 0.1 mm 1 mps 762 mmHg 83%
    Show more